Temperature
11 10 8 7 6 5 5 6 5 5 5 5 5 5 5 5 5 4 4 4 4 4 4 3 3 3 3 2 2 2 1 1 2 2 2 3 3 3 3 3 3 4 4
9 8 7 7 5 5 5 5 5 5 5 5 5 5 5 5 5 5 5 4 4 4 4 3 3 3 2 2 1 1 1 1 1 2 2 3 3 3 3 3 3 4 3
8 7 6 5 5 5 5 5 5 5 5 5 5 5 5 5 5 4 4 3 3 3 2 2 2 2 1 1 1 1 1 1 1 1 2 2 3 3 3 3 3 3 3
7 6 5 5 5 5 5 5 5 5 5 5 5 5 5 5 4 3 2 2 2 1 1 1 1 0 0 -0 -0 -0 -0 -0 0 0 1 2 3 4 3 3 3 3 2
6 6 6 5 5 5 5 5 5 5 5 5 5 4 4 3 3 3 2 1 1 0 -0 -0 -0 -0 -0 -0 -1 -1 -1 -0 -0 0 1 3 3 3 3 3 2 1 1
6 6 6 5 5 5 5 5 5 4 4 4 4 3 3 2 2 2 1 0 -1 -1 -1 -1 -1 -1 -1 -1 -1 -1 -1 -1 -0 0 1 2 2 2 2 1 1 0 1
6 6 6 6 6 5 5 5 4 4 3 3 3 2 2 1 1 1 0 -1 -1 -1 -1 -1 -1 -1 -1 -1 -1 -1 -1 -1 -0 -0 -0 0 1 1 1 0 0 0 1
6 6 6 6 6 5 4 4 3 3 2 2 2 1 1 1 0 -0 -0 -0 -1 -1 -1 -1 -1 -1 -1 -1 -1 -1 -0 -0 0 0 0 0 0 0 0 0 0 1 1
6 6 6 5 5 4 4 3 2 2 2 1 1 1 1 0 -0 -0 0 0 -0 -0 -0 -0 -0 -0 -1 -1 -1 -1 -1 -0 -0 -0 -0 -0 -0 0 1 1 1 1 2
6 5 5 4 4 3 2 2 1 1 1 0 0 0 0 0 -0 -0 0 0 0 0 0 -0 -0 -0 -1 -1 -1 -1 -1 -0 0 0 0 -0 -0 1 2 2 1 2 2
5 4 4 3 3 2 2 1 1 0 0 -0 -1 -1 -0 -0 -0 -1 -0 0 0 0 -0 -0 -1 -1 -1 -1 -1 -1 -0 -0 0 0 -0 -0 0 1 2 2 2 1 1
4 3 3 2 2 2 1 1 1 0 -0 -1 -1 -1 -1 -0 -1 -1 0 0 0 0 0 -1 -1 -1 -1 -1 -1 -1 -0 0 0 -0 -0 -0 0 1 1 1 1 1 0
3 3 2 2 1 1 1 1 1 -0 -1 -1 -2 -2 -1 -1 -1 -0 0 0 0 0 0 -1 -1 -1 -1 -1 -1 -0 -0 0 -0 -0 -0 -0 -0 0 0 0 0 -0 -1
3 2 2 1 1 1 1 1 -0 -1 -1 -2 -2 -2 -2 -1 -1 -0 0 -0 0 0 -0 -1 -1 -1 -1 -1 -1 -1 -1 -0 -0 -0 -0 -0 -0 0 -0 -0 -1 -1 -1
3 2 2 2 1 1 -0 -0 -1 -1 -1 -1 -2 -1 -2 -1 -1 -1 -1 -0 -0 0 -0 -1 -1 -1 -1 -1 -1 -1 -1 -1 -1 -1 -1 -0 -0 -0 -0 -0 -1 -1 -2
3 3 2 2 1 0 -0 -0 -0 -1 -1 -1 -1 -1 -1 -1 -1 -0 -0 -0 -0 0 -0 -1 -1 -1 -1 -1 -1 -1 -1 -1 -1 -1 -1 -0 -0 -0 -0 -1 -1 -1 -2
2 2 2 2 1 0 -0 -0 -1 -1 -1 -1 -2 -1 -1 -1 -1 -1 -0 -0 0 0 -0 -1 -1 -1 -1 -1 -1 -1 -1 -1 -1 -1 -1 -0 -0 -0 0 -0 -0 -1 -1
2 2 2 2 1 0 -0 -1 -1 -1 -1 -1 -1 -1 -1 -1 -1 -1 -0 0 0 0 -0 -0 -1 -1 -1 -1 -1 -1 -1 -1 -1 -1 -0 -0 0 0 1 1 0 -0 -0
2 2 2 2 1 0 -0 -1 -1 -1 -2 -2 -1 -1 -1 -1 -1 -1 -1 -0 -0 -0 -0 -0 -0 -1 -1 -1 -1 -1 -1 -1 -1 -1 -0 -0 0 1 1 1 1 0 0
1 1 1 2 1 1 0 -1 -1 -2 -2 -2 -2 -2 -2 -1 -1 -1 -1 -1 -1 -0 -0 -0 -0 -1 -1 -1 -1 -1 -1 -1 -1 -1 -0 0 1 1 1 1 1 1 1
2 2 1 1 1 1 1 -0 -1 -1 -2 -3 -2 -2 -2 -1 -1 -1 -1 -1 -1 -0 -0 -0 -0 -1 -1 -1 -1 -1 -1 -1 -1 -1 -0 0 1 1 1 1 1 1 2
2 2 2 1 1 1 0 0 -0 -1 -2 -3 -3 -2 -2 -1 -1 -1 -1 -1 -1 -1 -1 -1 -1 -1 -1 -1 -1 -1 -1 -1 -1 -0 -0 0 1 1 1 1 1 2 2
3 2 2 1 1 1 1 0 -1 -1 -1 -2 -2 -2 -2 -2 -2 -2 -1 -1 -1 -1 -1 -1 -1 -1 -1 -1 -1 -1 -0 -1 -1 -0 0 0 0 1 1 1 1 2 2
3 2 2 2 1 1 0 0 -1 -1 -1 -1 -2 -3 -2 -2 -2 -2 -1 -1 -1 -1 -1 -1 -1 -1 -1 -1 -0 -0 -0 -0 -0 0 1 1 1 1 1 1 1 1 1
3 2 2 1 1 1 0 -0 -1 -1 -1 -1 -2 -2 -2 -3 -3 -2 -1 -1 -1 -0 -0 -1 -1 -1 -1 -0 -0 -1 -0 -0 -0 0 1 1 1 1 1 2 2 2 2
2 2 1 1 1 0 0 -0 -1 -1 -2 -2 -2 -2 -3 -3 -3 -2 -2 -1 -1 -1 -0 -0 -0 -0 -1 -0 -0 -0 0 0 0 1 1 1 1 2 2 2 3 3 3
Wind_Speed
9 7 3 4 1 2 3 3 4 5 5 6 7 8 10 11 12 13 14 16 16 15 14 16 18 17 16 14 14 13 14 16 19 17 17 14 15 14 15 17 16 15 14
6 3 3 3 1 3 4 4 5 6 7 9 10 12 13 15 15 16 17 17 18 18 17 18 19 17 17 16 15 16 15 14 18 19 17 17 16 17 16 15 11 12 12
4 3 2 1 2 4 4 4 6 7 10 12 13 15 16 17 17 17 17 17 18 17 18 18 18 20 19 17 18 17 15 14 16 16 17 16 15 14 15 12 11 13 12
4 3 1 2 3 4 5 6 8 10 13 14 15 15 15 15 14 13 13 13 15 14 14 15 16 16 17 15 15 17 15 15 15 15 16 15 14 13 10 10 12 11 9
3 2 1 1 2 4 7 9 10 11 11 11 10 10 10 10 8 10 13 15 16 15 16 17 16 18 21 18 16 16 16 15 13 14 16 15 13 11 11 10 12 11 10
1 1 1 2 4 6 8 9 8 8 8 8 8 9 9 7 10 10 13 15 17 16 17 17 16 18 21 20 18 20 20 19 18 16 16 16 16 13 13 8 9 11 7
2 2 2 3 5 6 7 6 6 7 8 9 9 9 9 6 8 9 13 15 15 15 16 15 15 15 16 15 16 18 20 21 22 20 19 20 19 16 12 10 10 12 8
2 3 3 4 5 5 5 7 8 8 9 9 9 9 7 4 5 10 16 15 14 14 14 14 13 15 15 16 15 16 16 18 19 17 17 16 13 13 12 12 12 9 2
3 3 4 4 5 5 7 8 8 8 8 9 8 8 8 7 6 9 14 13 13 14 13 12 13 12 14 16 15 15 16 16 15 16 16 17 18 21 18 10 7 4 3
4 5 5 5 5 6 7 7 7 7 8 9 9 8 6 8 5 7 12 11 12 13 13 13 16 16 17 17 14 14 15 15 11 8 8 9 10 10 6 8 5 3 2
4 6 5 4 4 5 6 6 6 6 6 7 8 8 7 9 8 8 13 12 12 12 13 11 11 15 16 16 13 12 13 13 11 7 4 3 4 5 5 5 3 2 0
5 5 4 4 6 6 6 5 4 6 7 8 9 8 8 8 8 12 16 15 15 13 13 12 12 16 16 15 12 11 13 9 2 3 3 3 4 4 5 6 6 6 5
5 4 5 6 7 6 5 5 7 7 7 9 9 9 9 9 11 15 17 17 17 15 13 17 16 15 15 12 11 9 6 4 5 4 4 4 4 3 4 7 8 8 9
4 4 5 6 5 6 6 8 8 8 8 7 8 9 10 11 11 12 13 14 14 14 14 14 13 12 11 10 9 8 7 6 5 5 4 4 4 5 7 5 5 6 8
5 6 6 6 6 7 7 8 8 8 6 7 8 9 10 10 12 15 13 11 10 12 13 9 8 9 9 7 6 6 6 5 5 5 5 5 6 8 7 7 8 7 8
4 6 6 7 7 6 5 3 3 2 1 3 6 8 8 10 14 17 17 15 15 16 10 9 9 9 8 8 6 7 7 6 6 6 6 6 7 7 6 8 8 8 9
6 6 5 6 6 6 7 8 8 6 2 1 6 10 11 12 15 17 18 15 13 12 8 9 9 9 9 8 7 6 6 6 6 5 5 6 6 6 6 8 10 10 10
5 3 6 8 8 8 7 7 7 7 8 7 8 9 11 14 13 15 17 12 10 10 9 9 9 9 8 7 7 7 7 8 7 6 8 7 4 3 5 8 9 11 11
8 7 7 8 7 6 6 6 5 6 7 7 9 11 13 13 13 13 13 10 9 9 9 9 9 9 9 8 6 6 7 7 7 8 7 5 4 6 10 12 13 13 13
8 7 7 8 7 7 7 7 7 8 8 8 8 10 11 10 10 11 10 10 9 9 9 8 9 9 8 8 7 7 7 7 7 6 6 5 5 7 10 10 11 12 11
8 7 5 9 9 9 8 8 7 6 7 8 8 10 13 10 9 10 10 10 10 10 9 9 8 8 8 8 7 7 8 7 5 4 6 7 8 9 10 9 11 11 10
7 8 8 9 9 9 9 9 10 10 10 9 10 8 9 9 8 9 10 10 10 9 9 8 8 7 7 7 6 7 7 6 4 4 6 8 9 9 10 10 10 9 11
7 7 8 9 9 9 9 10 10 9 8 7 7 9 10 9 10 10 10 11 10 9 9 8 8 8 8 8 7 6 6 5 4 4 6 8 9 8 9 9 10 10 12
7 8 8 9 8 9 10 10 10 9 10 10 10 9 10 10 11 11 10 10 8 10 11 11 9 9 9 9 8 9 9 10 8 5 5 8 10 9 9 10 11 12 12
9 8 9 9 9 9 9 10 10 10 11 11 10 10 10 11 12 12 10 8 9 10 12 14 14 13 13 14 14 12 12 15 15 11 6 8 10 10 9 9 11 14 12
9 9 9 9 9 9 9 10 10 10 10 10 10 10 11 10 11 11 12 11 8 9 11 13 15 16 15 14 17 18 18 17 16 16 9 7 8 8 9 9 10 11 11
Wind_Direction
71 70 59 65 93 230 280 330 308 289 293 299 303 299 294 290 288 284 282 281 280 276 272 275 280 287 291 298 295 290 287 287 287 285 281 274 270 284 280 281 281 277 273
94 109 100 79 323 274 293 313 297 284 287 293 294 289 287 287 287 286 286 287 290 290 288 290 294 290 291 292 293 288 286 284 283 284 281 281 286 279 276 270 269 271 269
105 98 74 16 284 272 287 307 298 290 290 294 295 291 293 299 301 298 297 301 301 302 299 297 292 289 290 292 290 290 290 287 283 286 282 275 271 267 270 271 293 286 288
115 141 194 291 287 276 288 297 297 296 294 295 293 297 303 306 307 319 324 319 307 301 298 292 286 285 284 285 288 289 286 283 284 286 285 282 281 277 275 277 287 285 290
146 152 152 249 278 287 297 305 307 305 309 313 315 315 318 320 359 351 323 311 308 307 301 294 293 298 300 290 280 281 286 286 283 282 281 280 281 286 283 291 294 300 289
142 191 195 279 293 301 306 310 317 331 336 334 333 328 329 344 38 355 325 314 311 310 307 303 299 293 290 284 280 277 276 280 283 283 286 286 285 289 291 291 283 283 270
223 265 284 298 310 325 328 337 347 347 342 336 331 330 328 0 37 341 326 317 312 302 299 300 302 299 298 298 293 289 284 279 275 273 273 274 278 281 291 278 263 266 259
220 303 333 352 2 15 356 354 353 345 340 338 333 328 326 16 22 339 332 317 308 305 302 301 299 295 296 296 295 289 283 277 271 267 266 272 282 283 268 259 259 264 237
296 345 26 42 44 10 357 357 350 342 347 335 332 336 342 339 359 351 332 322 313 310 312 308 299 288 284 282 284 283 280 277 265 253 261 271 273 270 260 249 236 209 196
9 55 70 50 20 5 358 353 348 340 352 343 342 334 327 319 357 9 337 326 314 315 311 305 303 297 291 288 289 288 286 290 299 301 287 280 289 297 257 219 213 200 188
88 95 70 33 6 357 350 354 338 340 353 339 325 320 316 317 338 19 344 333 326 315 311 312 304 306 307 302 295 290 292 299 298 296 308 330 331 359 43 61 58 44 209
101 87 54 14 354 354 346 334 331 8 350 342 336 334 329 328 344 357 336 323 324 320 311 315 331 334 324 313 304 295 294 297 346 37 28 16 13 34 54 68 70 68 63
99 71 35 14 8 358 347 355 18 16 1 355 347 340 332 337 348 346 332 326 328 326 316 318 332 340 333 328 335 345 359 40 62 56 43 32 19 46 92 77 70 68 56
87 52 34 35 15 24 24 31 20 13 7 351 343 341 338 343 340 335 331 330 329 325 323 327 341 345 345 352 4 20 39 61 65 59 51 35 28 53 57 68 76 62 63
64 41 32 49 46 44 39 25 23 30 13 350 351 340 334 330 326 322 323 326 328 324 328 342 354 358 2 12 21 28 40 48 52 53 50 43 51 53 45 55 68 69 72
51 56 37 38 44 35 29 77 110 65 341 335 345 334 334 328 326 329 333 331 335 336 342 355 353 353 358 8 29 38 43 47 52 53 47 44 61 63 73 91 95 87 81
42 36 49 38 34 39 25 20 15 8 311 322 5 352 351 346 341 342 345 344 349 350 360 353 350 353 4 18 38 43 42 51 62 57 67 72 72 80 94 88 78 76 80
69 32 30 36 31 37 24 24 15 1 357 360 6 359 349 343 343 347 350 355 3 4 0 352 347 350 2 22 27 34 44 51 46 47 64 79 77 76 72 85 83 88 82
44 38 36 44 35 33 33 22 15 8 6 2 0 1 357 355 1 360 -0 8 2 358 354 352 348 348 354 8 21 46 57 54 46 47 62 73 45 67 80 80 79 78 87
71 30 6 30 28 23 33 37 21 21 21 6 7 7 355 356 3 360 360 2 0 356 354 352 350 348 352 359 17 41 72 67 53 52 60 61 60 66 78 84 87 86 86
63 60 32 37 33 27 34 45 48 35 27 7 13 30 12 6 2 358 357 358 357 355 355 354 352 353 355 358 18 49 55 49 50 50 47 44 57 69 78 78 82 89 93
58 51 45 41 40 36 33 39 35 39 42 19 11 21 29 13 3 2 0 356 353 354 356 355 354 357 354 358 17 38 35 41 34 48 51 54 62 64 76 81 83 84 93
52 49 46 42 38 40 38 45 42 29 42 51 29 10 12 14 12 15 2 356 355 357 360 1 1 4 3 7 13 20 28 19 28 62 62 64 64 68 75 76 78 81 87
52 46 44 48 41 40 37 40 42 36 27 32 39 30 17 17 22 23 9 357 359 5 7 7 7 9 9 12 20 30 17 3 13 40 76 84 90 84 82 84 87 89 95
55 51 48 44 41 40 41 40 36 31 30 31 31 28 26 23 20 17 17 8 4 11 13 14 14 13 21 20 16 18 14 8 9 3 81 97 97 96 92 90 96 106 115
59 55 50 46 43 40 38 39 37 32 29 31 29 29 29 27 24 18 16 20 16 19 20 15 15 16 12 15 6 359 358 360 359 352 359 95 97 89 87 84 90 101 109
Height
1523 1522 1523 1523 1525 1527 1529 1528 1529 1529 1527 1527 1525 1525 1524 1522 1520 1517 1515 1514 1510 1505 1502 1500 1496 1493 1490 1487 1484 1481 1477 1473 1467 1462 1460 1457 1454 1452 1448 1445 1443 1441 1439
1520 1521 1522 1522 1526 1527 1527 1527 1527 1527 1526 1525 1524 1522 1520 1518 1515 1512 1509 1507 1504 1499 1496 1493 1490 1486 1483 1480 1477 1473 1469 1466 1462 1455 1453 1451 1448 1445 1441 1438 1437 1436 1434
1519 1521 1522 1522 1524 1525 1526 1526 1526 1525 1524 1523 1521 1519 1515 1512 1509 1506 1503 1500 1496 1491 1488 1485 1481 1478 1475 1472 1469 1465 1462 1458 1454 1450 1446 1444 1440 1438 1435 1434 1431 1429 1427
1517 1520 1522 1523 1524 1525 1525 1524 1523 1522 1521 1518 1516 1514 1510 1506 1503 1499 1495 1491 1488 1484 1480 1476 1473 1470 1467 1464 1461 1458 1455 1451 1447 1443 1439 1436 1434 1432 1430 1427 1425 1422 1418
1517 1520 1521 1523 1524 1525 1525 1522 1520 1519 1517 1513 1510 1507 1505 1501 1497 1493 1489 1485 1481 1477 1472 1469 1465 1462 1459 1457 1454 1450 1447 1443 1440 1436 1433 1430 1428 1426 1424 1421 1419 1415 1411
1520 1521 1521 1522 1522 1523 1522 1520 1517 1515 1513 1509 1505 1503 1500 1497 1492 1488 1483 1478 1474 1470 1465 1461 1457 1453 1451 1449 1447 1443 1441 1437 1433 1431 1427 1424 1422 1420 1418 1415 1412 1409 1407
1521 1522 1521 1520 1520 1520 1520 1518 1515 1511 1509 1505 1502 1500 1497 1494 1489 1485 1479 1474 1469 1464 1460 1456 1452 1448 1445 1442 1439 1436 1433 1430 1427 1424 1420 1417 1414 1413 1410 1407 1405 1404 1403
1520 1521 1520 1518 1517 1518 1518 1515 1512 1509 1506 1502 1500 1498 1495 1492 1487 1481 1475 1470 1466 1462 1457 1452 1446 1441 1438 1435 1431 1428 1425 1421 1418 1415 1412 1409 1406 1403 1401 1400 1399 1399 1398
1520 1519 1517 1516 1516 1516 1515 1512 1509 1506 1504 1501 1499 1496 1493 1490 1485 1479 1473 1468 1463 1458 1453 1448 1441 1437 1433 1430 1425 1421 1417 1413 1411 1408 1404 1401 1397 1394 1393 1394 1395 1395 1394
1520 1517 1516 1516 1515 1514 1512 1509 1507 1505 1502 1499 1496 1494 1491 1487 1484 1478 1472 1465 1460 1454 1448 1442 1437 1432 1427 1423 1419 1415 1411 1408 1405 1402 1398 1395 1393 1389 1388 1390 1391 1391 1391
1518 1515 1516 1516 1514 1512 1510 1508 1506 1503 1500 1496 1494 1492 1488 1485 1482 1476 1470 1464 1457 1451 1444 1438 1432 1426 1420 1416 1413 1409 1406 1403 1400 1398 1396 1394 1392 1390 1389 1388 1389 1389 1389
1517 1515 1516 1515 1512 1511 1509 1507 1505 1502 1498 1495 1492 1489 1486 1483 1479 1474 1468 1463 1457 1450 1442 1435 1428 1420 1414 1410 1407 1405 1402 1400 1398 1396 1395 1394 1393 1391 1391 1390 1389 1389 1388
1518 1516 1515 1513 1511 1510 1509 1507 1504 1500 1498 1494 1490 1486 1483 1481 1477 1471 1465 1460 1455 1448 1441 1434 1426 1418 1412 1409 1405 1403 1400 1399 1398 1397 1396 1396 1395 1395 1394 1393 1391 1391 1389
1518 1516 1514 1513 1511 1510 1509 1506 1503 1500 1497 1493 1490 1487 1483 1479 1474 1468 1463 1458 1453 1447 1440 1433 1426 1419 1414 1410 1406 1404 1402 1401 1400 1400 1400 1400 1400 1399 1398 1397 1395 1394 1392
1518 1517 1516 1514 1512 1510 1507 1506 1503 1500 1497 1494 1490 1487 1482 1478 1474 1469 1463 1458 1452 1447 1441 1434 1428 1423 1418 1413 1410 1408 1406 1405 1405 1405 1405 1405 1404 1403 1402 1401 1399 1398 1397
1520 1518 1516 1515 1513 1510 1508 1505 1502 1500 1497 1494 1491 1488 1483 1479 1474 1469 1464 1459 1454 1449 1443 1437 1431 1427 1423 1419 1416 1413 1412 1411 1410 1410 1410 1409 1409 1408 1407 1407 1406 1404 1403
1519 1518 1517 1515 1513 1511 1509 1507 1504 1501 1499 1496 1492 1488 1483 1479 1475 1469 1464 1459 1455 1450 1445 1440 1436 1432 1428 1424 1421 1419 1418 1417 1416 1416 1416 1415 1415 1415 1414 1414 1413 1411 1410
1520 1518 1518 1516 1514 1512 1510 1508 1505 1502 1500 1497 1493 1489 1484 1480 1475 1470 1465 1460 1455 1451 1448 1444 1440 1436 1432 1430 1427 1425 1424 1423 1423 1422 1422 1422 1421 1421 1420 1420 1419 1419 1418
1522 1520 1519 1517 1515 1513 1511 1509 1507 1504 1501 1498 1494 1490 1485 1481 1476 1472 1467 1461 1457 1453 1450 1447 1444 1440 1437 1435 1433 1431 1430 1429 1428 1428 1428 1427 1427 1428 1427 1427 1426 1426 1427
1523 1520 1520 1519 1517 1515 1513 1510 1508 1506 1502 1498 1495 1491 1486 1482 1478 1473 1469 1464 1460 1456 1452 1450 1447 1444 1442 1440 1439 1437 1436 1436 1434 1434 1434 1434 1434 1434 1433 1433 1434 1434 1434
1527 1525 1523 1522 1520 1517 1515 1512 1509 1507 1503 1499 1497 1493 1488 1484 1480 1476 1471 1466 1462 1459 1455 1452 1450 1448 1447 1445 1444 1443 1442 1441 1441 1440 1440 1441 1441 1440 1439 1439 1440 1441 1442
1530 1528 1526 1524 1522 1519 1517 1514 1512 1509 1504 1501 1498 1494 1491 1487 1483 1478 1473 1469 1466 1463 1458 1456 1453 1452 1451 1449 1449 1449 1447 1446 1446 1446 1446 1446 1446 1445 1445 1446 1447 1448 1449
1532 1530 1528 1526 1524 1521 1519 1516 1513 1510 1507 1503 1499 1496 1494 1490 1486 1482 1477 1473 1470 1467 1463 1461 1458 1457 1456 1454 1454 1454 1452 1451 1450 1451 1451 1451 1450 1450 1451 1452 1453 1454 1456
1534 1532 1530 1528 1525 1523 1521 1518 1515 1512 1510 1507 1504 1500 1497 1495 1491 1486 1481 1477 1474 1472 1468 1465 1463 1462 1461 1460 1459 1458 1457 1456 1456 1456 1457 1458 1457 1457 1458 1458 1459 1460 1461
1536 1534 1532 1530 1528 1525 1523 1520 1517 1515 1512 1510 1507 1504 1501 1498 1494 1490 1486 1482 1479 1476 1473 1471 1469 1467 1466 1465 1464 1463 1463 1462 1461 1461 1462 1463 1463 1463 1464 1465 1465 1466 1467
1538 1536 1534 1532 1530 1528 1525 1523 1520 1517 1515 1513 1510 1508 1505 1501 1498 1494 1491 1487 1484 1482 1479 1476 1474 1473 1471 1470 1469 1469 1469 1468 1467 1466 1467 1468 1468 1469 1469 1470 1471 1472 1473